Location: Bucquoy
(50.1391°N, 2.7097°E)
Time: 03:50:11
(UTC+00:00)

BREEZE-M DEB (TANK) - Pass Details

Date: 06 May 2021
Orbit: 327 x 12033 km, 49.6° (Epoch: 22 June)

Event Time Altitude Azimuth Distance (km) Brightness Sun altitude
Exits shadow 01:49:31 18° 165° (SSE) 1,944 4.5 -17.9°
Maximum altitude 01:52:30 29° 119° (ESE) 2,081 5.0 -17.7°
Drops below altitude 10° 02:03:16 10° 67° (ENE) 5,846 8.2 -16.8°
Sets 02:12:00 0° 61° (ENE) 8,866 9.5 -15.9°
